Weather History for EGPU - August, 2013

Change the Weather History Date:

Monday, August 12, 2013

  Actual Average Record
Temperature  
Mean Temperature 55 °F -  
Max Temperature 60 °F 60 °F 68 °F (1997)
Min Temperature 50 °F 51 °F 50 °F (2007)
Degree Days  
Heating Degree Days 10    
Growing Degree Days 5 (Base 50)    
Moisture  
Dew Point 51 °F    
Average Humidity 83    
Maximum Humidity 94    
Minimum Humidity 68    
Precipitation  
Precipitation 0.01 in 0.14 in - ()
Sea Level Pressure  
Sea Level Pressure 29.94 in    
Wind  
Wind Speed 13 mph ()    
Max Wind Speed 18 mph    
Max Gust Speed -    
Visibility 7.0 miles    
Events Rain    
Averages and records for this station are not official NWS values.
T = Trace of Precipitation, MM = Missing Value Source: Averaged Metar Reports

Daily Weather History Graph

Daily Weather History Graph

Search for Another Location

Airport or City:

Trip Planner

Search our weather history database for the weather conditions in past years. The results will help you decide how hot, cold, wet, or windy it might be!

Date:

Astronomy

Aug. 12, 2013 Rise Set
Actual Time 5:50 AM BST 9:12 PM BST
Civil Twilight 5:05 AM BST 9:57 PM BST
Nautical Twilight 4:02 AM BST 10:59 PM BST
Astronomical Twilight 2:14 AM BST 12:40 AM BST
Moon 12:45 PM BST (8/12) 10:35 PM BST (8/12)
Length of Visible Light 16h 52m
Length of Day
15h 22m
Waxing Crescent, 29% of the Moon is Illuminated
Aug 12
Waxing Crescent
Aug 14
First Quarter
Aug 21
Full
Aug 28
Last Quarter
Sep 5
New

Hourly Weather History & Observations

Time (BST) Temp. Dew Point Humidity Pressure Visibility Wind Dir Wind Speed Gust Speed Precip Events Conditions
12:20 AM 55.4 °F 51.8 °F 88% 29.83 in 6.2 mi West 11.5 mph - N/A   Partly Cloudy
12:50 AM 54 °F 51 °F 87% 29.84 in 10 mi West 13.8 mph - -   Partly Cloudy
12:50 AM 53.6 °F 51.8 °F 94% 29.83 in 6.2 mi West 13.8 mph - N/A   Unknown
1:20 AM 53.6 °F 51.8 °F 94% 29.83 in 6.2 mi WNW 15.0 mph - N/A   Unknown
1:50 AM 55.4 °F 51.8 °F 88% 29.83 in 6.2 mi WNW 13.8 mph - N/A   Partly Cloudy
2:20 AM 55.4 °F 51.8 °F 88% 29.83 in 6.2 mi WNW 12.7 mph - N/A   Unknown
2:50 AM 55.4 °F 51.8 °F 88% 29.83 in 6.2 mi NW 12.7 mph - N/A   Unknown
3:20 AM 55.4 °F 51.8 °F 88% 29.83 in 6.2 mi NW 12.7 mph - N/A   Unknown
3:50 AM 54 °F 52 °F 91% 29.86 in 9 mi NW 11.5 mph - - Rain Rain
3:50 AM 53.6 °F 51.8 °F 94% 29.86 in 6.2 mi NW 11.5 mph - N/A   Unknown
4:20 AM 55.4 °F 51.8 °F 88% 29.86 in 6.2 mi NNW 11.5 mph - N/A   Partly Cloudy
4:50 AM 53.6 °F 50.0 °F 88% 29.86 in 6.2 mi NW 13.8 mph - N/A   Unknown
5:20 AM 53.6 °F 51.8 °F 94% 29.86 in 6.2 mi NW 13.8 mph - N/A   Unknown
5:50 AM 53.6 °F 51.8 °F 94% 29.86 in 6.2 mi NW 11.5 mph - N/A   Partly Cloudy
6:20 AM 53.6 °F 51.8 °F 94% 29.89 in 6.2 mi NNW 9.2 mph - N/A   Unknown
6:50 AM 54 °F 52 °F 89% 29.90 in 13 mi NNW 12.7 mph - - Rain Light Rain Showers
6:50 AM 55.4 °F 51.8 °F 88% 29.89 in 6.2 mi NNW 12.7 mph - N/A Rain Light Rain Showers
7:20 AM 55.4 °F 51.8 °F 88% 29.89 in 6.2 mi NNW 12.7 mph - N/A   Partly Cloudy
7:50 AM 55.4 °F 50.0 °F 82% 29.92 in 6.2 mi NW 12.7 mph - N/A   Partly Cloudy
8:20 AM 57.2 °F 51.8 °F 82% 29.92 in 6.2 mi NW 13.8 mph - N/A   Unknown
8:50 AM 55.4 °F 51.8 °F 88% 29.92 in 6.2 mi NW 12.7 mph - N/A   Mostly Cloudy
9:20 AM 55.4 °F 51.8 °F 88% 29.92 in 6.2 mi NW 13.8 mph - N/A   Scattered Clouds
9:50 AM 58 °F 52 °F 73% 29.95 in 14 mi NW 16.1 mph - -   Partly Cloudy
9:50 AM 57.2 °F 51.8 °F 82% 29.95 in 6.2 mi NW 16.1 mph - N/A   Scattered Clouds
10:20 AM 57.2 °F 51.8 °F 82% 29.95 in 6.2 mi NW 15.0 mph - N/A   Unknown
10:50 AM 59.0 °F 51.8 °F 77% 29.95 in 6.2 mi NW 16.1 mph - N/A   Partly Cloudy
11:20 AM 59.0 °F 53.6 °F 82% 29.95 in 6.2 mi NW 17.3 mph - N/A   Scattered Clouds
11:50 AM 59.0 °F 51.8 °F 77% 29.95 in 6.2 mi NNW 17.3 mph - N/A   Unknown
12:20 PM 59.0 °F 51.8 °F 77% 29.95 in 6.2 mi NW 18.4 mph - N/A   Scattered Clouds
12:50 PM 59 °F 51 °F 69% 29.97 in 16 mi NW 16.1 mph - -   Scattered Clouds
12:50 PM 59.0 °F 51.8 °F 77% 29.95 in 6.2 mi NW 16.1 mph - N/A   Unknown
1:20 PM 59.0 °F 53.6 °F 82% 29.98 in 6.2 mi NW 17.3 mph - N/A   Partly Cloudy
1:50 PM 59.0 °F 50.0 °F 72% 29.98 in 6.2 mi NW 18.4 mph - N/A   Scattered Clouds
2:20 PM 60.8 °F 50.0 °F 68% 29.98 in 6.2 mi NW 17.3 mph - N/A   Scattered Clouds
2:50 PM 59.0 °F 51.8 °F 77% 29.98 in 6.2 mi NW 17.3 mph - N/A   Scattered Clouds
3:20 PM 59.0 °F 51.8 °F 77% 29.98 in 6.2 mi WNW 18.4 mph - N/A   Scattered Clouds
3:50 PM 57 °F 50 °F 72% 30.00 in 16 mi WNW 17.3 mph - -   Scattered Clouds
3:50 PM 57.2 °F 50.0 °F 77% 29.98 in 6.2 mi WNW 17.3 mph - N/A   Scattered Clouds
4:20 PM 57.2 °F 51.8 °F 82% 29.98 in 6.2 mi WNW 17.3 mph - N/A   Scattered Clouds
4:50 PM 57.2 °F 51.8 °F 82% 30.01 in 6.2 mi NW 17.3 mph - N/A   Scattered Clouds
5:20 PM 57.2 °F 51.8 °F 82% 30.01 in 6.2 mi NW 13.8 mph - N/A   Unknown
5:50 PM 55.4 °F 50.0 °F 82% 30.01 in 6.2 mi NW 15.0 mph - N/A   Scattered Clouds
6:20 PM 57.2 °F 50.0 °F 77% 30.01 in 6.2 mi NW 16.1 mph - N/A   Partly Cloudy
6:50 PM 57.2 °F 50.0 °F 77% 30.01 in 6.2 mi NW 17.3 mph - N/A   Unknown
7:20 PM 55.4 °F 48.2 °F 77% 30.01 in 6.2 mi NW 16.1 mph - N/A   Partly Cloudy
7:50 PM 57.2 °F 51.8 °F 82% 30.01 in 6.2 mi NW 11.5 mph - N/A   Mostly Cloudy
8:20 PM 55.4 °F 48.2 °F 77% 30.01 in 6.2 mi WNW 15.0 mph - N/A   Scattered Clouds
8:50 PM 53.6 °F 48.2 °F 82% 30.01 in 6.2 mi WNW 10.4 mph - N/A   Unknown
9:20 PM 51.8 °F 46.4 °F 82% 30.04 in 6.2 mi WNW 10.4 mph - N/A   Partly Cloudy
9:50 PM 51.8 °F 46.4 °F 82% 30.04 in 6.2 mi WNW 10.4 mph - N/A   Unknown
10:20 PM 51.8 °F 46.4 °F 82% 30.04 in 6.2 mi WNW 9.2 mph - N/A   Partly Cloudy
10:50 PM 51.8 °F 46.4 °F 82% 30.04 in 6.2 mi NW 9.2 mph - N/A   Partly Cloudy
11:20 PM 50.0 °F 46.4 °F 87% 30.04 in 6.2 mi WNW 9.2 mph - N/A   Unknown
11:50 PM 50.0 °F 46.4 °F 87% 30.04 in 6.2 mi NW 8.1 mph - N/A   Partly Cloudy